Regional Weather Roundup
Issued by NWS Cleveland, OH

Home | Current Version | Previous Version | Graphics & Text | Print | Product List | Glossary On
Versions: 1 2 3 4 5 6 7 8 9 10 11 12 13 14 15 16 17 18 19 20 21 22 23 24 25 26 27 28 29 30 31 32 33 34 35 36 37 38 39 40 41 42 43 44 45 46 47 48 49 50
000
ASUS41 KCLE 221102
RWRCLE
OHIO REGIONAL WEATHER ROUNDUP
NATIONAL WEATHER SERVICE CLEVELAND, OH
600 AM EST SAT NOV 22 2014

NOTE: "FAIR" INDICATES FEW OR NO CLOUDS BELOW 12,000 FEET WITH NO
SIGNIFICANT WEATHER AND/OR OBSTRUCTIONS TO VISIBILITY.

OHZ001>008-015>018-024>027-034-035-043-044-221200-
   NORTHWEST OHIO

CITY           SKY/WX    TMP DP  RH WIND       PRES   REMARKS
DEFIANCE       MIX PCPN  32  28  85 S12       30.19F FOG     WCI  23
FINDLAY        FRZ RAIN  34  25  69 S15       30.21F WCI  24
TOLEDO EXPRESS FRZ RAIN  29  23  78 S8        30.19F WCI  21
TOLEDO EXEC    MIX PCPN  30  19  63 S13       30.20F WCI  20
LIMA           LGT RAIN  36  26  67 S14       30.21F
$$

OHZ009>014-019>023-028>033-038-089-221200-
   NORTHEAST OHIO

CITY           SKY/WX    TMP DP  RH WIND       PRES   REMARKS
CLE-HOPKINS    CLOUDY    28  11  48 S15       30.27F WCI  16
CLE-LAKEFRONT  CLOUDY    27  11  51 S15       30.24F WCI  15
CUY CO. ARPT   NOT AVBL
LORAIN-ELYRIA  MOCLDY    26  12  55 S13       30.25F WCI  15
ASHTABULA      PTCLDY    21   9  59 S10       30.28F WCI  10
AKRON-CANTON   MOCLDY    26  11  52 S12       30.28F WCI  16
WOOSTER        CLOUDY   N/A N/A N/A SW12      30.28F
MANSFIELD      CLOUDY    30  14  51 S14       30.24F WCI  19
YOUNGSTOWN     PTCLDY    22   9  57 S10       30.28F WCI  11
$$

OHZ042-051>053-060>062-070>072-077>081-221200-
  SOUTHWEST OHIO

CITY           SKY/WX    TMP DP  RH WIND       PRES   REMARKS
CINC-COVINGTON LGT RAIN  35  24  64 S7        30.29F WCI  29
CINC-LUNKEN    MIX PCPN  31  25  78 CALM      30.33F
HAMILTON       CLOUDY    31  26  82 VRB3      30.31F
DAYTON         FRZ DRZL  34  26  72 S15       30.26F WCI  24
WRIGHT-PAT AFB FRZ RAIN  32  27  80 SE7       30.28F WCI  26
DAYTON GENERAL RAIN      33  25  72 S13       30.28S WCI  24
WILMINGTON     MIX PCPN  32  23  69 S10       30.29F WCI  24
$$

OHZ036-037-039>041-045>050-054>059-063>069-073>076-082>088-221200-
  CENTRAL AND SOUTHEAST OHIO

CITY           SKY/WX    TMP DP  RH WIND       PRES   REMARKS
COLUMBUS       FRZ RAIN  28  16  60 S3        30.32S
OSU AIRPORT    MIX PCPN  27  17  66 S8        30.30F WCI  19
BOLTON FIELD   CLOUDY    28  20  74 MISG      30.31F
RICKENBACK AFB NOT AVBL
NEWARK         MIX PCPN  25  18  74 CALM      30.32F
MARION         MIX PCPN  30  18  60 S14       30.25F WCI  19
LANCASTER      CLOUDY    29  17  61 S5        30.32F WCI  24
ZANESVILLE     CLOUDY    23  14  68 S3        30.33F
NEW PHILLY     CLOUDY    22  12  65 SE8       30.33F WCI  12
$$


USA.gov is the U.S. government's official web portal to all federal, state and local government web resources and services.